CST,Max TemperatureF,Mean TemperatureF,Min TemperatureF,Max Dew PointF,MeanDew PointF,Min DewpointF,Max Humidity, Mean Humidity, Min Humidity, Max Sea Level PressureIn, Mean Sea Level PressureIn, Min Sea Level PressureIn, Max VisibilityMiles, Mean VisibilityMiles, Min VisibilityMiles, Max Wind SpeedMPH, Mean Wind SpeedMPH, Max Gust SpeedMPH,PrecipitationIn, CloudCover, Events, WindDirDegrees
2012-2-1,63,52,40,54,48,37,100,78,55,30.18,30.08,30.04,10,5,0,14,2,17,0.00,5,Fog,293
2012-2-2,65,49,32,41,35,31,96,62,28,30.33,30.28,30.19,10,10,4,9,3,13,0.00,0,,103
2012-2-3,53,47,40,47,41,33,86,70,54,30.31,30.21,30.08,10,8,2,15,8,17,0.36,6,Rain,105
2012-2-4,59,53,47,55,51,42,100,87,74,30.10,30.04,29.98,10,7,2,15,6,20,0.29,8,Rain,273
2012-2-5,49,42,35,45,41,33,92,86,80,30.30,30.22,30.10,10,8,4,16,7,20,0.04,7,Rain,327
2012-2-6,52,41,29,37,32,27,96,72,48,30.32,30.26,30.20,10,7,2,8,2,12,0.00,0,,232
2012-2-7,51,40,28,39,32,27,100,73,46,30.31,30.26,30.23,10,7,0,14,1,17,0.01,3,Fog,275
2012-2-8,41,38,35,37,31,26,92,78,64,30.43,30.38,30.31,10,8,5,16,8,20,T,8,,353
2012-2-9,37,35,33,30,27,24,75,70,64,30.42,30.33,30.22,10,10,10,7,2,8,0.00,8,,166
2012-2-10,39,33,27,36,30,16,92,78,63,30.25,30.12,30.03,10,8,3,28,11,38,0.04,8,Rain,243
2012-2-11,32,26,20,18,10,5,68,52,35,30.56,30.48,30.26,10,9,2,26,15,35,T,3,Snow,336
2012-2-12,39,28,17,17,8,1,63,42,20,30.59,30.50,30.35,10,10,10,15,7,20,0.00,0,,282
2012-2-13,36,28,20,31,25,16,92,70,47,30.32,30.09,29.93,10,6,0,17,6,23,0.17,7,Fog-Rain-Snow,164
2012-2-14,44,38,32,35,33,30,96,83,70,30.09,29.99,29.90,10,8,2,10,5,12,0.01,6,Rain,207
2012-2-15,48,41,34,45,41,34,93,89,85,30.17,30.06,29.98,9,5,1,13,6,16,0.36,7,Rain,141
2012-2-16,54,44,33,46,42,32,100,82,63,30.26,30.13,29.98,10,6,0,20,6,23,0.03,5,Fog,326
2012-2-17,52,40,28,39,33,28,100,75,50,30.28,30.21,30.12,10,4,0,10,2,13,0.00,0,Fog,170
2012-2-18,47,41,34,37,33,30,92,73,53,30.15,30.10,30.05,10,8,3,17,8,22,0.00,6,,26
2012-2-19,48,39,30,30,26,23,75,57,38,30.17,30.09,30.02,10,10,10,18,10,24,0.00,1,,11
2012-2-20,51,38,24,29,26,22,92,64,36,30.28,30.14,29.87,10,10,10,18,8,24,T,1,,151
2012-2-21,58,50,42,40,37,34,76,61,46,29.98,29.90,29.79,10,10,10,25,14,37,0.08,3,,213
2012-2-22,64,49,33,53,43,31,100,76,51,29.85,29.61,29.48,10,9,2,21,7,25,0.00,0,,216
2012-2-23,72,57,41,57,48,40,100,72,44,29.53,29.39,29.25,10,8,0,29,13,36,0.00,3,Fog,157
2012-2-24,55,43,30,40,26,22,78,58,38,30.19,29.95,29.55,10,10,10,29,15,37,0.00,4,,295
2012-2-25,47,39,30,26,19,11,75,49,23,30.36,30.29,30.18,10,10,10,22,8,26,0.00,1,,318
2012-2-26,61,45,28,33,26,19,69,49,29,30.30,30.22,30.12,10,10,10,25,12,33,0.00,0,,170
2012-2-27,61,47,32,36,29,25,82,55,27,30.43,30.36,30.25,10,10,10,17,7,23,0.00,0,,35
2012-2-28,67,52,36,60,43,25,84,62,39,30.38,30.10,29.82,10,10,2,28,8,36,0.22,6,Rain-Thunderstorm,135
2012-2-29,70,59,47,63,49,32,93,61,28,29.89,29.77,29.54,20,9,2,29,16,44,0.30,4,Rain-Thunderstorm,231